Weather History for Shawnee, OK

Change the Weather History Date:

Monday, February 25, 2013

  Actual Average (KTIK) Record (KTIK)
Temperature  
Mean Temperature 43 °F -  
Max Temperature 51 °F 52 °F 75 °F (1999)
Min Temperature 35 °F 31 °F 10 °F (2003)
Degree Days  
Heating Degree Days 22    
Moisture  
Dew Point 40 °F    
Average Humidity 94    
Maximum Humidity 100    
Minimum Humidity 67    
Precipitation  
Precipitation 0.00 in - - ()
Sea Level Pressure  
Sea Level Pressure 29.60 in    
Wind  
Wind Speed 12 mph (NNE)    
Max Wind Speed 22 mph    
Max Gust Speed 30 mph    
Visibility 6 miles    
Events Rain , Snow , Thunderstorm    
Averages and records for this station are not official NWS values.
T = Trace of Precipitation, MM = Missing Value Source: NWS Daily Summary

Daily Weather History Graph

Daily Weather History Graph

Search for Another Location

Airport:

Trip Planner

Search our weather history database for the weather conditions in past years. The results will help you decide how hot, cold, wet, or windy it might be!

Date:

Astronomy

Feb. 25, 2013 Rise Set
Actual Time 7:02 AM CST 6:19 PM CST
Civil Twilight 6:36 AM CST 6:45 PM CST
Nautical Twilight 6:07 AM CST 7:15 PM CST
Astronomical Twilight 5:37 AM CST 7:44 PM CST
Moon 6:31 PM CST (2/25) 6:34 AM CST (2/25)
Length of Visible Light 12h 08m
Length of Day
11h 17m
Full, 100% of the Moon is Illuminated
Feb 25
Full
Feb 25
Full
Mar 4
Last Quarter
Mar 11
New
Mar 19
First Quarter

Hourly Weather History & Observations

Time (CST) Temp. Windchill Dew Point Humidity Pressure Visibility Wind Dir Wind Speed Gust Speed Precip Events Conditions
12:15 AM 51.8 °F - 41.0 °F 67% 29.76 in 10.0 mi ENE 9.2 mph - N/A   Scattered Clouds
12:35 AM 51.8 °F - 41.0 °F 67% 29.76 in 10.0 mi ENE 9.2 mph - N/A   Mostly Cloudy
12:55 AM 48.2 °F - 39.2 °F 71% 29.76 in 10.0 mi East 13.8 mph 18.4 mph N/A   Overcast
1:15 AM 48.2 °F - 39.2 °F 71% 29.74 in 10.0 mi East 13.8 mph 18.4 mph N/A   Scattered Clouds
1:35 AM 48.2 °F - 39.2 °F 71% 29.76 in 10.0 mi East 11.5 mph 17.3 mph N/A   Scattered Clouds
1:55 AM 48.2 °F - 39.2 °F 71% 29.78 in 10.0 mi East 11.5 mph - N/A   Mostly Cloudy
2:15 AM 48.2 °F - 39.2 °F 71% 29.75 in 10.0 mi East 13.8 mph - N/A   Scattered Clouds
2:35 AM 48.2 °F - 39.2 °F 71% 29.76 in 10.0 mi East 10.4 mph 17.3 mph N/A   Clear
2:55 AM 46.4 °F 41.5 °F 39.2 °F 76% 29.76 in 10.0 mi East 10.4 mph - N/A   Clear
3:15 AM 46.4 °F 42.4 °F 39.2 °F 76% 29.75 in 10.0 mi East 8.1 mph - N/A   Scattered Clouds
3:35 AM 46.4 °F 42.4 °F 39.2 °F 76% 29.73 in 10.0 mi ENE 8.1 mph - N/A   Overcast
4:15 AM 44.6 °F 39.2 °F 37.4 °F 76% 29.69 in 10.0 mi East 10.4 mph 16.1 mph N/A   Mostly Cloudy
4:35 AM 46.4 °F 41.9 °F 37.4 °F 71% 29.67 in 10.0 mi ENE 9.2 mph - N/A   Overcast
5:15 AM 44.6 °F 38.1 °F 39.2 °F 81% 29.64 in 10.0 mi East 13.8 mph - N/A Rain Light Rain
5:35 AM 44.6 °F 38.8 °F 41.0 °F 87% 29.63 in 10.0 mi ENE 11.5 mph - N/A Rain , Thunderstorm Light Thunderstorms and Rain
5:55 AM 44.6 °F 41.4 °F 41.0 °F 87% 29.66 in 10.0 mi East 5.8 mph - N/A Rain , Thunderstorm Light Thunderstorms and Rain
6:15 AM 42.8 °F 36.6 °F 41.0 °F 93% 29.62 in 7.0 mi NE 11.5 mph - N/A Rain , Thunderstorm Rain
6:35 AM 42.8 °F - 42.8 °F 100% 29.69 in 5.0 mi Calm Calm - N/A Rain , Thunderstorm Thunderstorms and Rain
6:55 AM 42.8 °F 37.0 °F 42.8 °F 100% 29.65 in 2.5 mi NNE 10.4 mph - N/A Rain , Thunderstorm Rain
7:15 AM 42.8 °F 35.8 °F 42.8 °F 100% 29.65 in 4.0 mi NNE 13.8 mph 19.6 mph N/A Rain , Thunderstorm Heavy Thunderstorms and Rain
7:35 AM 42.8 °F 35.8 °F 42.8 °F 100% 29.65 in 4.0 mi North 13.8 mph - N/A Rain , Thunderstorm Thunderstorms and Rain
7:55 AM 42.8 °F 35.4 °F 42.8 °F 100% 29.65 in 2.0 mi NNE 15.0 mph - N/A Rain , Thunderstorm Heavy Thunderstorms and Rain
8:15 AM 42.8 °F 35.4 °F 42.8 °F 100% 29.61 in 3.0 mi NE 15.0 mph 23.0 mph N/A Rain , Thunderstorm Light Thunderstorms and Rain
8:35 AM 42.8 °F 37.0 °F 42.8 °F 100% 29.65 in 7.0 mi NNE 10.4 mph 19.6 mph N/A Rain , Thunderstorm Light Thunderstorms and Rain
8:55 AM 42.8 °F 34.8 °F 42.8 °F 100% 29.64 in 1.8 mi NNE 17.3 mph 23.0 mph N/A Rain , Thunderstorm Heavy Thunderstorms and Rain
9:15 AM 42.8 °F 35.8 °F 42.8 °F 100% 29.63 in 3.0 mi NE 13.8 mph 19.6 mph N/A Rain Light Rain
9:55 AM 42.8 °F 37.0 °F 42.8 °F 100% 29.62 in 5.0 mi NNE 10.4 mph - N/A Rain Light Rain
10:15 AM 42.8 °F 37.5 °F 42.8 °F 100% 29.62 in 5.0 mi NNE 9.2 mph 18.4 mph N/A Rain Light Rain
10:35 AM 42.8 °F 35.4 °F 42.8 °F 100% 29.60 in 4.0 mi NNE 15.0 mph - N/A Rain Rain
10:55 AM 42.8 °F 37.0 °F 42.8 °F 100% 29.60 in 7.0 mi NE 10.4 mph 17.3 mph N/A   Overcast
11:15 AM 42.8 °F 38.0 °F 42.8 °F 100% 29.62 in 10.0 mi ENE 8.1 mph - N/A   Overcast
11:35 AM 42.8 °F 36.6 °F 42.8 °F 100% 29.59 in 4.0 mi NE 11.5 mph - N/A Rain Rain
11:55 AM 42.8 °F 37.5 °F 42.8 °F 100% 29.58 in 4.0 mi NE 9.2 mph 17.3 mph N/A   Light Drizzle
12:15 PM 42.8 °F 37.0 °F 42.8 °F 100% 29.57 in 5.0 mi NE 10.4 mph - N/A   Light Drizzle
12:35 PM 42.8 °F 37.0 °F 42.8 °F 100% 29.55 in 5.0 mi NE 10.4 mph - N/A   Overcast
12:55 PM 42.8 °F 35.4 °F 42.8 °F 100% 29.51 in 5.0 mi NE 15.0 mph 20.7 mph N/A   Overcast
1:15 PM 42.8 °F 38.0 °F 42.8 °F 100% 29.53 in 7.0 mi NE 8.1 mph - N/A   Overcast
1:35 PM 42.8 °F 37.5 °F 42.8 °F 100% 29.51 in 10.0 mi NE 9.2 mph 23.0 mph N/A   Overcast
1:55 PM 42.8 °F 37.0 °F 42.8 °F 100% 29.49 in 10.0 mi NNE 10.4 mph 16.1 mph N/A   Overcast
2:15 PM 42.8 °F 36.2 °F 42.8 °F 100% 29.48 in 10.0 mi NE 12.7 mph 17.3 mph N/A   Overcast
2:35 PM 42.8 °F 36.2 °F 42.8 °F 100% 29.49 in 7.0 mi NE 12.7 mph 16.1 mph N/A   Overcast
2:55 PM 42.8 °F 37.5 °F 42.8 °F 100% 29.49 in 5.0 mi NE 9.2 mph - N/A Rain Rain
3:15 PM 42.8 °F 38.6 °F 42.8 °F 100% 29.48 in 4.0 mi NNE 6.9 mph - N/A Rain Rain
3:35 PM 42.8 °F 38.0 °F 42.8 °F 100% 29.49 in 4.0 mi NE 8.1 mph - N/A Rain Light Rain
3:55 PM 41.0 °F 34.7 °F 41.0 °F 100% 29.49 in 4.0 mi NNE 10.4 mph - N/A Rain Rain
4:15 PM 41.0 °F 33.5 °F 41.0 °F 100% 29.49 in 4.0 mi NNE 13.8 mph - N/A Rain Rain
4:35 PM 41.0 °F 35.8 °F 41.0 °F 100% 29.49 in 2.5 mi NE 8.1 mph - N/A Rain Rain
4:55 PM 39.2 °F 33.6 °F 39.2 °F 100% 29.50 in 2.0 mi NE 8.1 mph - N/A Rain Rain
5:15 PM 37.4 °F 29.8 °F 37.4 °F 100% 29.50 in 2.5 mi NNE 11.5 mph - N/A Rain Rain
5:35 PM 37.4 °F 28.9 °F 37.4 °F 100% 29.50 in 4.0 mi NNE 13.8 mph - N/A Rain Rain
5:55 PM 37.4 °F 29.8 °F 37.4 °F 100% 29.52 in 2.5 mi North 11.5 mph - N/A Rain Rain
6:15 PM 35.6 °F 28.0 °F 35.6 °F 100% 29.53 in 3.0 mi North 10.4 mph - N/A Rain Light Rain
6:35 PM 35.6 °F 27.5 °F 35.6 °F 100% 29.54 in 5.0 mi North 11.5 mph - N/A Snow Light Snow
6:55 PM 35.6 °F 27.1 °F 35.6 °F 100% 29.54 in 4.0 mi North 12.7 mph - N/A Snow Light Snow
7:15 PM 35.6 °F 26.6 °F 35.6 °F 100% 29.54 in 3.0 mi North 13.8 mph - N/A Snow Light Snow
7:35 PM 35.6 °F 26.2 °F 35.6 °F 100% 29.54 in 1.5 mi NNW 15.0 mph 20.7 mph N/A Snow Light Snow
7:55 PM 35.6 °F 25.5 °F 35.6 °F 100% 29.54 in 1.2 mi NNW 17.3 mph - N/A Snow Light Snow
8:15 PM 35.6 °F 25.2 °F 35.6 °F 100% 29.54 in 1.2 mi NNW 18.4 mph - N/A Snow Light Snow
8:35 PM 35.6 °F 25.5 °F 35.6 °F 100% 29.54 in 1.0 mi NNW 17.3 mph - N/A Snow Snow
8:55 PM 35.6 °F 24.5 °F 35.6 °F 100% 29.54 in 0.8 mi NNW 20.7 mph 25.3 mph N/A Snow Snow
9:15 PM 35.6 °F 24.8 °F 35.6 °F 100% 29.54 in 1.0 mi NNW 19.6 mph 28.8 mph N/A Snow Snow
9:35 PM 35.6 °F 24.8 °F 35.6 °F 100% 29.54 in 1.8 mi NNW 19.6 mph 26.5 mph N/A Snow Light Snow
9:55 PM 35.6 °F 24.2 °F 35.6 °F 100% 29.55 in 2.0 mi NNW 21.9 mph - N/A Snow Light Snow
10:15 PM 35.6 °F 24.5 °F 35.6 °F 100% 29.56 in 5.0 mi NNW 20.7 mph 26.5 mph N/A Snow Light Snow
10:35 PM 35.6 °F 24.8 °F 35.6 °F 100% 29.56 in 4.0 mi NNW 19.6 mph 26.5 mph N/A Snow Light Snow
10:55 PM 35.6 °F 24.5 °F 35.6 °F 100% 29.56 in 5.0 mi NNW 20.7 mph 28.8 mph N/A Snow Light Snow
11:15 PM 35.6 °F 24.8 °F 35.6 °F 100% 29.57 in 4.0 mi NNW 19.6 mph 28.8 mph N/A Snow Light Snow
11:35 PM 35.6 °F 24.5 °F 35.6 °F 100% 29.57 in 7.0 mi NNW 20.7 mph 25.3 mph N/A Snow Light Snow
11:55 PM 35.6 °F 24.2 °F 35.6 °F 100% 29.57 in 7.0 mi NNW 21.9 mph 29.9 mph N/A Snow Light Snow